Monroe, LA

3:22 AM CDT on July 24, 2016 (GMT -0500)
Monroe Regional

Weather History for KMLU - August, 2014

Change the Weather History Date:

Friday, August 29, 2014

  Actual Average Record
Temperature  
Mean Temperature 82 °F 82 °F  
Max Temperature 93 °F 93 °F 103 °F (1954)
Min Temperature 71 °F 70 °F 54 °F (1986)
Degree Days  
Heating Degree Days 0 0  
Month to date heating degree days 0 0  
Since 1 June heating degree days 0 0  
Since 1 July heating degree days 0 0  
Cooling Degree Days 17 17  
Month to date cooling degree days 468 514  
Year to date cooling degree days 1724 1974  
Since 1 June cooling degree days 1394 1539  
Growing Degree Days 31 (Base 50)    
Moisture  
Dew Point 71 °F    
Average Humidity 69    
Maximum Humidity 94    
Minimum Humidity 44    
Precipitation  
Precipitation 0.00 in 0.11 in 2.65 in (1996)
Month to date precipitation 4.32 2.96  
Year to date precipitation 36.38 35.26  
Snow  
Snow 0.00 in - - ()
Month to date snowfall 0.0  
Since 1 June snowfall 0.0  
Since 1 July snowfall 0.0  
Snow Depth 0.00 in    
Sea Level Pressure  
Sea Level Pressure 29.95 in    
Wind  
Wind Speed 4 mph (South)    
Max Wind Speed 14 mph    
Max Gust Speed 18 mph    
Visibility 9 miles    
Events      
T = Trace of Precipitation, MM = Missing Value Source: NWS Daily Summary

Daily Weather History Graph

Daily Weather History Graph

Search for Another Location

Airport or City:

Trip Planner

Search our weather history database for the weather conditions in past years. The results will help you decide how hot, cold, wet, or windy it might be!

Date:

Astronomy

Aug. 29, 2014 Rise Set
Actual Time 6:41 AM CDT 7:36 PM CDT
Civil Twilight 6:15 AM CDT 8:01 PM CDT
Nautical Twilight 5:46 AM CDT 8:31 PM CDT
Astronomical Twilight 5:15 AM CDT 9:01 PM CDT
Moon 10:15 AM CDT (8/29) 9:50 PM CDT (8/29)
Length of Visible Light 13h 45m
Length of Day
12h 55m
Waxing Crescent, 15% of the Moon is Illuminated
Aug 29
Waxing Crescent
Sep 2
First Quarter
Sep 8
Full
Sep 15
Last Quarter
Sep 24
New

Hourly Weather History & Observations

Time (CDT) Temp. Heat Index Dew Point Humidity Pressure Visibility Wind Dir Wind Speed Gust Speed Precip Events Conditions
12:53 AM 75.0 °F - 71.1 °F 87% 29.96 in 10.0 mi Calm Calm - N/A   Clear
1:53 AM 73.0 °F - 70.0 °F 90% 29.96 in 10.0 mi Calm Calm - N/A   Clear
2:53 AM 75.0 °F - 71.1 °F 87% 29.94 in 10.0 mi Calm Calm - N/A   Clear
3:53 AM 72.0 °F - 70.0 °F 93% 29.95 in 9.0 mi Calm Calm - N/A   Clear
4:53 AM 72.0 °F - 70.0 °F 93% 29.94 in 4.0 mi Calm Calm - N/A   Clear
5:53 AM 73.0 °F - 71.1 °F 93% 29.96 in 6.0 mi NE 3.5 mph - N/A   Clear
6:53 AM 72.0 °F - 70.0 °F 93% 29.97 in 2.0 mi Calm Calm - N/A   Partly Cloudy
7:01 AM 71.6 °F - 69.8 °F 94% 29.98 in 1.5 mi Calm Calm - N/A   Mostly Cloudy
7:07 AM 71.6 °F - 69.8 °F 94% 29.97 in 3.0 mi Calm Calm - N/A   Mostly Cloudy
7:53 AM 75.9 °F - 73.0 °F 91% 29.98 in 7.0 mi Calm Calm - N/A   Mostly Cloudy
8:53 AM 80.1 °F 84.5 °F 73.9 °F 81% 29.96 in 10.0 mi Calm Calm - N/A   Clear
9:53 AM 84.9 °F 92.1 °F 73.9 °F 69% 29.96 in 10.0 mi Calm Calm - N/A   Clear
10:53 AM 87.1 °F 95.4 °F 73.9 °F 65% 29.99 in 10.0 mi Calm Calm - N/A   Scattered Clouds
11:53 AM 89.1 °F 96.0 °F 72.0 °F 57% 29.99 in 10.0 mi South 9.2 mph - N/A   Mostly Cloudy
12:53 PM 90.0 °F 94.5 °F 69.1 °F 50% 29.95 in 10.0 mi Variable 6.9 mph - N/A   Clear
1:53 PM 90.0 °F 95.4 °F 70.0 °F 52% 29.96 in 10.0 mi South 9.2 mph - N/A   Scattered Clouds
2:53 PM 91.4 °F 95.4 °F 68.0 °F 46% 29.93 in 10.0 mi South 10.4 mph - N/A   Clear
3:53 PM 91.9 °F 95.4 °F 66.9 °F 44% 29.90 in 10.0 mi SSE 8.1 mph - N/A   Partly Cloudy
4:53 PM 91.0 °F 95.2 °F 68.0 °F 47% 29.89 in 10.0 mi SSE 10.4 mph 18.4 mph N/A   Clear
5:53 PM 89.1 °F 93.7 °F 69.1 °F 52% 29.91 in 10.0 mi South 6.9 mph - N/A   Clear
6:53 PM 86.0 °F 91.5 °F 71.1 °F 61% 29.92 in 10.0 mi South 6.9 mph - N/A   Clear
7:53 PM 82.9 °F 88.0 °F 72.0 °F 69% 29.94 in 10.0 mi South 3.5 mph - N/A   Clear
8:53 PM 82.0 °F 87.4 °F 73.0 °F 74% 29.94 in 10.0 mi South 5.8 mph - N/A   Clear
9:53 PM 80.6 °F 85.4 °F 73.4 °F 79% 29.95 in 10.0 mi SSW 4.6 mph - N/A   Clear
10:53 PM 79.0 °F - 73.9 °F 84% 29.97 in 10.0 mi South 3.5 mph - N/A   Clear
11:53 PM 79.0 °F - 73.9 °F 84% 29.99 in 10.0 mi SE 4.6 mph - N/A   Clear